Tracking 20040 objects as of 19-Nov-2019
Live streaming from Space Station
objects crossing your sky now

THORAD AGENA D DEB

Track THORAD AGENA D DEB now!
10-day predictions


NORAD ID: 4209
Int'l Code: 1969-082BY
Perigee: 853.7 km
Apogee: 917.0 km
Inclination: 70.0 °
Period: 102.5 minutes
Semi major axis: 7256 km
RCS: 0.4396 m2 (medium)
Launch date: September 30, 1969
Source: United States (US)
Launch site: AIR FORCE WESTERN TEST RANGE (AFWTR)

Note: This is SATELLITE DEBRIS
aabbcc
Your satellite tracking list
Your tracking list is empty




NASA's NSSDC Master Catalog

Two Line Element Set (TLE):
1  4209U 69082BY  19322.50537950 -.00000131  00000-0 -47996-4 0  9997
2  4209  70.0339  13.4060 0043628 265.0571  94.5558 14.04503214566964
Source of the keplerian elements: AFSPC